Location: Unspecified
(0.0000°N, 0.0000°E)
Time: 01:41:33
(UTC+00:00)

NUDT-PHONESAT - Pass Details

Date: 17 December 2017
Orbit: 494 x 513 km, 97.4° (Epoch: 22 January)

Event Time Altitude Azimuth Distance (km) Brightness Sun altitude
Rises 05:22:44 0° 33° (NNE) 2,606 ? -7.6°
Reaches altitude 10° 05:25:08 10° 48° (NE) 1,722 ? -7.1°
Maximum altitude 05:28:07 23° 101° (ESE) 1,113 ? -6.4°
Drops below altitude 10° 05:31:05 10° 155° (SSE) 1,720 ? -5.7°
Sets 05:33:28 0° 169° (S) 2,603 ? -5.2°
